COSMOS 1082

Satellite information

Favourite Embed

Satellite Type and Status

PAYLOADIN ORBIT

Key statistics

Satellite COSMOS 1082 at a glance.

Uptime

17036

Days in orbit

Revolutions

≈ 12.5

Per day

Orbit

LEO

Low Earth Orbit

Inclination

74.0

Latest

Satellite identification and parameters

Extended collection of information and parameters for COSMOS 1082.

Object identification

Identified? True

Debris? False

Object name: COSMOS 1082

International designator: 1979-024B

Object number (NORAD): 11297

Object ID (CCSDS): 11297

Country: COMMONWEALTH OF INDEPENDENT STATES (CIS)

Current information (Y/N): Y

RCS size: MEDIUM

Orbital parameters

Period: 114.745 minutes

Inclination: 74.0348 deg

SMA: 7821.954 km

Apoapsis: 1464.62 km

Periapsis: 1423.018 km

RAAN: 69.0004 deg

Eccentricy: 0.0026593

Argument of periapsis: 176.9832 deg

Mean anomaly: 249.9419 deg

Mean motion: 12.54959888 rev/day

Mean motion (dot): -0.00000027 rev/day2

B* drag term: -0.000070403 1/REarth

Two-line elements (TLE)

Creation date: Nov. 3, 2025, 11:16 p.m.

Reference frame: TEME

Reference center: EARTH

Epoch: Nov. 3, 2025, 4:49 p.m. UTC

TLE line 0: 0 COSMOS 1082

TLE line 1: 1 11297U 79024B 25307.70084703 -.00000027 00000-0 -70403-4 0 9997

TLE line 2: 2 11297 74.0348 69.0004 0026593 176.9832 249.9419 12.54959888736483

Live tracking on map

Real-time ground track for satellite COSMOS 1082.

In-orbit conjunctions

A list of the most updated potential collisions computed for object COSMOS 1082.

Target Orbit TCA Probability of collision Miss distance Type
SL-8 DEB MEO 2025-10-06 17:51:59 0.001456112 82.0 (m) DEBRIS

Associated space launch

Military communications satellites

COSMOS 1082 was lifted into orbit during the mission ‘Kosmos-3M | Strela-1M 169-176’, on board a Kosmos-3M space rocket.

The launch took place on March 15, 1979, 2:58 a.m. from 132/2.

For more information about the launch, click the button.

Launch to space Kosmos-3M | Strela-1M 169-176
Kosmos-3M | Strela-1M 169-176

Agency: N/A

Status: Launch Successful

Launch date: March 15, 1979, 2:58 a.m. UTC

Rocket: Kosmos-3M

Launch pad: 132/2

Location: Plesetsk Cosmodrome, Russian Federation

...

Latest news about this satellite

There are no fresh news available about this satellite. Check back as we update our databases every day.


Newsletter sign-up

Weekly statistics, charts and insights to help you stay on top of the space industry.